Location: Utrecht
(52.0907°N, 5.1214°E)
Time: 18:07:33
(UTC+02:00)

DIWATA 2B (PO-101) - Pass Details

Date: 06 July 2022
Orbit: 583 x 599 km, 98.0° (Epoch: 07 August)

Event Time Altitude Azimuth Distance (km) Brightness Sun altitude
Exits shadow 04:21:35 10° 210° (SSW) 1,964 ? -7.7°
Reaches altitude 10° 04:21:40 10° 211° (SSW) 1,938 ? -7.7°
Maximum altitude 04:25:08 25° 267° (W) 1,238 ? -7.4°
Drops below altitude 10° 04:28:38 10° 322° (NW) 1,950 ? -7.0°
Sets 04:31:09 0° 336° (NNW) 2,857 ? -6.8°
